Stündliche Wetter Kyslyts'ke

Heute, 26 Januar, Dienstag

Zeit Temperatur Niederschläge Wind Luftdruck Luftfeuchtigkeit
00:00 -2°C° 0.3 mm 8 m/S 722 mmHg 91%
01:00 -4°C° 0.3 mm 8 m/S 723 mmHg 87%
02:00 -4°C° 0.3 mm 8 m/S 723 mmHg 83%
03:00 -4°C° 0 mm 8 m/S 724 mmHg 82%
04:00 -3°C° 0 mm 7 m/S 725 mmHg 81%
05:00 -3°C° 0 mm 7 m/S 726 mmHg 80%
06:00 -3°C° 0 mm 7 m/S 727 mmHg 78%
07:00 -3°C° 0 mm 7 m/S 727 mmHg 75%
08:00 -3°C° 0 mm 7 m/S 728 mmHg 73%
09:00 -3°C° 0 mm 7 m/S 729 mmHg 74%
10:00 -2°C° 0 mm 7 m/S 729 mmHg 74%
11:00 -2°C° 0 mm 6 m/S 730 mmHg 75%
12:00 -2°C° 0 mm 6 m/S 730 mmHg 74%
13:00 -2°C° 0 mm 6 m/S 730 mmHg 74%
14:00 -1°C° 0 mm 5 m/S 730 mmHg 73%
15:00 -1°C° 0 mm 5 m/S 731 mmHg 76%
16:00 -2°C° 0 mm 4 m/S 731 mmHg 79%
17:00 -2°C° 0 mm 3 m/S 731 mmHg 82%
18:00 -2°C° 0 mm 3 m/S 732 mmHg 82%
19:00 -2°C° 0 mm 3 m/S 732 mmHg 82%
20:00 -2°C° 0 mm 3 m/S 732 mmHg 83%
21:00 -2°C° 0 mm 3 m/S 732 mmHg 82%
22:00 -2°C° 0 mm 3 m/S 732 mmHg 80%
23:00 -2°C° 0 mm 3 m/S 732 mmHg 79%

Morgen, 27 Januar, Mittwoch

Zeit Temperatur Niederschläge Wind Luftdruck Luftfeuchtigkeit
00:00 -2°C° 0 mm 3 m/S 733 mmHg 79%
01:00 -2°C° 0 mm 3 m/S 733 mmHg 80%
02:00 -2°C° 0 mm 3 m/S 733 mmHg 80%
03:00 -2°C° 0 mm 3 m/S 733 mmHg 80%
04:00 -3°C° 0 mm 4 m/S 733 mmHg 80%
05:00 -4°C° 0 mm 4 m/S 732 mmHg 80%
06:00 -4°C° 0 mm 4 m/S 732 mmHg 80%
07:00 -5°C° 0 mm 5 m/S 732 mmHg 81%
08:00 -5°C° 0 mm 5 m/S 732 mmHg 81%
09:00 -4°C° 0 mm 5 m/S 732 mmHg 79%
10:00 -4°C° 0 mm 5 m/S 732 mmHg 77%
11:00 -4°C° 0 mm 6 m/S 732 mmHg 76%
12:00 -4°C° 0.1 mm 6 m/S 731 mmHg 77%
13:00 -4°C° 0.1 mm 7 m/S 730 mmHg 79%
14:00 -4°C° 0.1 mm 7 m/S 730 mmHg 81%
15:00 -4°C° 0.6 mm 7 m/S 729 mmHg 85%
16:00 -5°C° 0.6 mm 8 m/S 729 mmHg 88%
17:00 -6°C° 0.6 mm 8 m/S 729 mmHg 92%
18:00 -6°C° 1.4 mm 8 m/S 728 mmHg 93%
19:00 -6°C° 1.4 mm 8 m/S 728 mmHg 94%
20:00 -6°C° 1.4 mm 8 m/S 728 mmHg 95%
21:00 -6°C° 1.5 mm 9 m/S 727 mmHg 94%
22:00 -6°C° 1.5 mm 9 m/S 727 mmHg 94%
23:00 -6°C° 1.5 mm 9 m/S 727 mmHg 94%

übermorgen, 28 Januar, Donnerstag

Zeit Temperatur Niederschläge Wind Luftdruck Luftfeuchtigkeit
00:00 -6°C° 0.4 mm 8 m/S 727 mmHg 94%
01:00 -6°C° 0.4 mm 8 m/S 726 mmHg 94%
02:00 -6°C° 0.4 mm 8 m/S 726 mmHg 94%
03:00 -6°C° 0.5 mm 8 m/S 726 mmHg 94%
04:00 -6°C° 0.5 mm 9 m/S 725 mmHg 94%
05:00 -6°C° 0.5 mm 9 m/S 725 mmHg 93%
06:00 -6°C° 1 mm 9 m/S 725 mmHg 94%
07:00 -6°C° 1 mm 9 m/S 725 mmHg 94%
08:00 -6°C° 1 mm 9 m/S 724 mmHg 95%
09:00 -6°C° 1.4 mm 9 m/S 724 mmHg 95%
10:00 -6°C° 1.4 mm 8 m/S 724 mmHg 96%
11:00 -4°C° 1.4 mm 7 m/S 724 mmHg 96%
12:00 -4°C° 1.2 mm 7 m/S 724 mmHg 96%
13:00 -4°C° 1.2 mm 6 m/S 724 mmHg 96%
14:00 -4°C° 1.2 mm 6 m/S 724 mmHg 96%
15:00 -4°C° 0.3 mm 6 m/S 724 mmHg 96%
16:00 -4°C° 0.3 mm 6 m/S 724 mmHg 96%
17:00 -5°C° 0.3 mm 6 m/S 724 mmHg 96%
18:00 -5°C° 0.3 mm 6 m/S 725 mmHg 96%
19:00 -5°C° 0.3 mm 6 m/S 725 mmHg 96%
20:00 -5°C° 0.3 mm 5 m/S 725 mmHg 95%
21:00 -5°C° 0.4 mm 5 m/S 725 mmHg 95%
22:00 -6°C° 0.4 mm 5 m/S 725 mmHg 95%
23:00 -6°C° 0.4 mm 5 m/S 725 mmHg 95%

29 Januar, Freitag

Zeit Temperatur Niederschläge Wind Luftdruck Luftfeuchtigkeit
00:00 -7°C° 0.2 mm 5 m/S 725 mmHg 94%
01:00 -7°C° 0.2 mm 4 m/S 725 mmHg 93%
02:00 -8°C° 0.2 mm 4 m/S 725 mmHg 92%
03:00 -9°C° 0 mm 4 m/S 725 mmHg 93%
04:00 -9°C° 0 mm 3 m/S 725 mmHg 93%
05:00 -10°C° 0 mm 3 m/S 725 mmHg 94%
06:00 -9°C° 0 mm 3 m/S 725 mmHg 94%
07:00 -8°C° 0 mm 3 m/S 725 mmHg 95%
08:00 -7°C° 0 mm 3 m/S 725 mmHg 95%
09:00 -6°C° 0.3 mm 3 m/S 725 mmHg 95%
10:00 -6°C° 0.3 mm 3 m/S 725 mmHg 95%
11:00 -5°C° 0.3 mm 4 m/S 725 mmHg 95%
12:00 -4°C° 0 mm 4 m/S 725 mmHg 94%
13:00 -4°C° 0 mm 4 m/S 724 mmHg 93%
14:00 -3°C° 0 mm 4 m/S 724 mmHg 92%
15:00 -4°C° 0 mm 4 m/S 724 mmHg 92%
16:00 -5°C° 0 mm 3 m/S 724 mmHg 93%
17:00 -6°C° 0 mm 3 m/S 724 mmHg 93%
18:00 -7°C° 0 mm 3 m/S 724 mmHg 91%
19:00 -7°C° 0 mm 2 m/S 725 mmHg 89%
20:00 -7°C° 0 mm 2 m/S 725 mmHg 86%
21:00 -7°C° 0 mm 2 m/S 725 mmHg 86%
22:00 -7°C° 0 mm 2 m/S 725 mmHg 87%
23:00 -7°C° 0 mm 2 m/S 725 mmHg 87%

30 Januar, Samstag

Zeit Temperatur Niederschläge Wind Luftdruck Luftfeuchtigkeit
00:00 -7°C° 0 mm 2 m/S 725 mmHg 87%
01:00 -7°C° 0 mm 2 m/S 725 mmHg 87%
02:00 -7°C° 0 mm 2 m/S 725 mmHg 87%
03:00 -7°C° 0 mm 2 m/S 725 mmHg 87%
04:00 -7°C° 0 mm 2 m/S 725 mmHg 88%
05:00 -8°C° 0 mm 2 m/S 725 mmHg 89%
06:00 -8°C° 0 mm 2 m/S 725 mmHg 90%
07:00 -9°C° 0 mm 2 m/S 725 mmHg 90%
08:00 -9°C° 0 mm 2 m/S 726 mmHg 91%
09:00 -8°C° 0 mm 2 m/S 726 mmHg 91%
10:00 -7°C° 0 mm 2 m/S 726 mmHg 91%
11:00 -7°C° 0 mm 3 m/S 726 mmHg 91%
12:00 -7°C° 0 mm 3 m/S 726 mmHg 92%
13:00 -5°C° 0 mm 2 m/S 726 mmHg 92%
14:00 -5°C° 0 mm 2 m/S 726 mmHg 92%
15:00 -5°C° 0 mm 2 m/S 726 mmHg 93%
16:00 -6°C° 0 mm 2 m/S 726 mmHg 93%
17:00 -6°C° 0 mm 2 m/S 726 mmHg 94%
18:00 -7°C° 0 mm 2 m/S 727 mmHg 94%
19:00 -7°C° 0 mm 2 m/S 727 mmHg 94%
20:00 -9°C° 0 mm 3 m/S 727 mmHg 94%
21:00 -10°C° 0 mm 3 m/S 728 mmHg 94%
22:00 -10°C° 0 mm 3 m/S 728 mmHg 94%
23:00 -12°C° 0 mm 3 m/S 729 mmHg 94%

31 Januar, Sonntag

Zeit Temperatur Niederschläge Wind Luftdruck Luftfeuchtigkeit
00:00 -12°C° 0 mm 3 m/S 729 mmHg 94%
01:00 -12°C° 0 mm 3 m/S 729 mmHg 93%
02:00 -13°C° 0 mm 3 m/S 729 mmHg 92%
03:00 -13°C° 0 mm 3 m/S 730 mmHg 92%
04:00 -13°C° 0 mm 3 m/S 730 mmHg 92%
05:00 -13°C° 0 mm 3 m/S 730 mmHg 91%
06:00 -12°C° 0 mm 3 m/S 730 mmHg 92%
07:00 -12°C° 0 mm 3 m/S 731 mmHg 93%
08:00 -12°C° 0 mm 4 m/S 731 mmHg 94%
09:00 -11°C° 0 mm 4 m/S 732 mmHg 92%
10:00 -10°C° 0 mm 5 m/S 732 mmHg 90%
11:00 -8°C° 0 mm 5 m/S 732 mmHg 88%
12:00 -8°C° 0 mm 5 m/S 732 mmHg 88%
13:00 -7°C° 0 mm 5 m/S 732 mmHg 87%
14:00 -7°C° 0 mm 4 m/S 733 mmHg 87%
15:00 -8°C° 0 mm 4 m/S 732 mmHg 88%
16:00 -8°C° 0 mm 3 m/S 732 mmHg 90%
17:00 -9°C° 0 mm 3 m/S 732 mmHg 91%
18:00 -10°C° 0 mm 3 m/S 732 mmHg 90%
19:00 -9°C° 0 mm 2 m/S 732 mmHg 88%
20:00 -10°C° 0 mm 2 m/S 732 mmHg 87%
21:00 -10°C° 0 mm 2 m/S 733 mmHg 86%
22:00 -10°C° 0 mm 2 m/S 733 mmHg 86%
23:00 -10°C° 0 mm 2 m/S 733 mmHg 86%
Mehr zeigen

Wir brauchen deine Erlaubnis

Meteoprog und unser Service Anbieter werden persönliche Daten aufbewahren, so wie Cookies, Geräte Bezeichnung oder ähnliche Technologien von deinem Gerät und Prozess, so wie Persönliche Daten Inhalte und Werbungen, genauso wie social Media und den Verkehr zu analysieren.

  • Aufbewahrung und/oder Zugang zu deiner Geräte Informationen.

    Cookies, Geräte Bezeichnung oder andere Informationen, können aufbewahrt oder Zugang zu deinem Gerät erhalten, für den Grund, der oben angegeben wird.

  • Personalisierte Werbung und Inhalte, Messungen, Einblick in das Publikum und Produkt Entwicklung.

    Werbungen und Inhalte können personalisiert werden, basierend auf ein Profil. Mehr Daten können besser personalisierte Werbungen und Inhalte hinzufügen. Werbung und Inhalte können gezeigt und gemessen werden. Einblicke über das Publikum, welche die Werbung gesehen haben und den Inhalt, können abgeleitet werden. So wie Daten können genutzt werden, um es zu verbessern oder die Benutzer Erfahrung zu verbessern das System und die Software.

Wenn du “Ich stimme zu” klickst, erlaubst du uns, die Cookies zu benutzen die Geräte Bezeichnung, den Web oder ähnliche Technologien zu benutzen. Deine Settings, können in deinem Gerät bei deinem Browser geändert werden.

Für den bestimmten Zweck, berechtigten Interessen beruhen darauf, mehr als auf den Inhalt. Du kannst mehr darüber in unseren Privaten und Cookie Politik lesen.